C/2015 V1 ( PanSTARRS )

Japanese version
Home page
Updated on July 6, 2017

---------------------------------------------------------------------

* Profile

Discovery Date November 2, 2015
Magnitude 20.2 mag
Discoverer Pan-STARRS 1 telescope (Haleakala)

* Pictures

* Orbital Elements

Epoch 2018 Jan. 2.0 TT = JDT 2458120.5
T 2017 Dec. 17.73349 TT                                 MPCW
q   4.2668265            (2000.0)            P               Q
z  -0.0001235      Peri.  179.63835     +0.95387669     +0.22989872
 +/-0.0000011      Node   197.19411     +0.27376137     -0.40229888
e   1.0005269      Incl.  139.22915     +0.12318268     -0.88617278
From 844 observations 2015 Nov. 2-2017 Feb. 26, mean residual 0".4.

* Finding Charts

* Magnitudes Graph

        m1 = 6.0 + 5 log d + 10.0 log r

---------------------------------------------------------------------

The orbital elements are published on M.P.E.C. 2017-E59.
The charts are made with StellaNavigator Ver.8 (AstroArts).
The magnitudes graphs are made with Comet for Windows.

---------------------------------------------------------------------

Copyright(C) Seiichi Yoshida (comet@aerith.net). All rights reserved.